Location: Apeadero de Los Molinos-Guadarrama
(40.7091°N, 4.0689°W)
Time: 13:36:25
(UTC+00:00)

OBJECT-B - Pass Details

Date: 14 May 2021
Orbit: 414 x 423 km, 97.0° (Epoch: 05 June)

Event Time Altitude Azimuth Distance (km) Brightness Sun altitude
Exits shadow 20:32:25 - 188° (S) 2,177 4.1 -11.6°
Reaches altitude 10° 20:34:05 10° 197° (SSW) 1,508 3.3 -11.8°
Maximum altitude 20:37:02 33° 263° (W) 744 2.4 -12.2°
Drops below altitude 10° 20:40:00 10° 329° (NNW) 1,522 4.8 -12.7°
Sets 20:42:09 0° 339° (NNW) 2,393 5.7 -13.0°
